Find Starlink 11168

NORAD ID: 60183 Int'l Des: 2024-124 Owner: SPXS Country: US Constellation: starlink operational
LEOCIRCULAR

Current View

Loading 3D Globe...

About Starlink 11168

Starlink 11168 (NORAD 60183) is a starlink constellation satellite (v2 mini d2c) launched Jul 3, 2024 by SPXS of US. It operates in LEO, CIRCULAR orbit with a mass of 960.00 kg.

About Starlink 11168

Description loading...

Upcoming Passes

Passes for default location (London). Set your location on the main map for personalized predictions.

Altitude History

Loading altitude history...

Two-Line Element Set

1 60183U 24124A 26170.99643644 .00000641 00000-0 10144-4 0 9997
2 60183 53.1588 16.8396 0000970 49.0458 311.0644 15.69713997113796
Epoch: Jun 19, 2026 • Age: 40 hours

Current Status

Altitude 360.1 km
Velocity 7.70 km/s
Sub-Earth Point 25.00°N, 117.55°W
Launch Date Jul 3, 2024
Age 1.9 years
Type internet

Technical Details

Classification Payload
Mass 960.00 kg
Dry Mass 910.00 kg
Total Mass 960.00 kg
Length 0.30 m
Diameter 4.10 m
Span 29.00 m
Shape Box + pan
Manufacturer SPXS
Bus Type Starlink V2MD
Phase Status In Orbit
Owner/State SPXS/US

Most Searched